Regional Weather Roundup
Issued by NWS Sterling, VA

Home | Current Version | Previous Version | Text Only | Print | Product List | Glossary On
Versions: 1 2 3 4 5 6 7 8 9 10 11 12 13 14 15 16 17 18 19 20 21 22 23 24 25 26 27 28 29 30 31 32 33 34 35 36 37 38 39 40 41 42 43 44 45 46 47 48 49 50
000
ASUS41 KLWX 240411
RWRLWX

REGIONAL WEATHER ROUNDUP
NATIONAL WEATHER SERVICE BALTIMORE MD/WASHINGTON DC
1200 AM EDT SAT JUN 24 2017

Note: "FAIR" indicates few or no clouds below 12,000 feet
with no significant weather and/or obstructions to visibility.
 TC=TEMPERATURE CELSIUS

 * =Non NWS site. Station does not report precipitation (e.g. rain,
    snow, etc.), thunder, or fog.

DCZ001-MDZ009-015-VAZ040>042-051-053>054-240500-
WASHINGTON METRO

CITY           SKY/WX    TMP DP  RH WIND       PRES   REMARKS
WASHINGTON NAT CLOUDY    84  73  69 S16       29.69F HX  90
DULLES         CLOUDY    82  70  66 S14G25    29.68F
ANDREWS AFB    CLOUDY    82  70  68 S16G22    29.69F
FT BELVOIR     CLOUDY    82  72  71 S7        29.70S
QUANTICO       MOCLDY    84  72  67 SW13G18   29.70F
COLLEGE PARK*  CLOUDY    83  71  67 S5        29.68F
LEESBURG*      CLOUDY   N/A N/A N/A SW9       29.69F
MANASSAS*      CLOUDY    82  71  69 S8        29.70F
GAITHERSBURG*  PTCLDY    81  71  71 S9G16     29.70F

$$

MDZ006>007-011-014-240500-
BALTIMORE METRO

CITY           SKY/WX    TMP DP  RH WIND       PRES   REMARKS
BWI AIRPORT    MOCLDY    83  73  72 SW10      29.67F
MD SCIENCE CTR   N/A     85  73  67 MISG      29.67F HX  91
MARTIN STATE   MOCLDY    82  75  78 S9        29.69S
ANNAPOLIS      PTCLDY    83  74  74 S8        29.68F
FORT MEADE*    MOCLDY    79  70  73 SW9       29.71F

$$

MDZ012-015-019>023-240500-
MARYLAND EASTERN SHORE

CITY           SKY/WX    TMP DP  RH WIND       PRES   REMARKS
OCEAN CITY     CLEAR     80  75  84 SW10      29.77F
SALISBURY      PTCLDY    82  75  79 SW15      29.76S
BAY BRIDGE AP* PTCLDY    82  72  69 S12G20    29.70F
CAMBRIDGE*     CLEAR     82  72  69 S9        29.73F
EASTON*        PTCLDY    84  72  65 SW18G24   29.75F

$$

MDZ017>025-240500-
SOUTHERN MARYLAND

CITY           SKY/WX    TMP DP  RH WIND       PRES   REMARKS
PATUXENT RIVER PTCLDY    83  70  64 S12       29.72F
ST INIGOES     MOCLDY    83  74  74 S15G28    29.73F
LEONARDTOWN*   MOCLDY    81  70  69 S10       29.75F

$$

MDZ003>005-240500-
NORTH CENTRAL MARYLAND

CITY           SKY/WX    TMP DP  RH WIND       PRES   REMARKS
FREDERICK*     NOT AVBL
HAGERSTOWN APT CLOUDY    73  72  96 NE3       29.68F
WESTMINSTER*   MOCLDY    81  73  78 CALM      29.70F

$$

MDZ501>502-240500-
WESTERN MARYLAND

CITY           SKY/WX    TMP DP  RH WIND       PRES   REMARKS
OAKLAND*       NOT AVBL
CUMBERLAND*    CLOUDY    72  72 100 N5        29.73F

$$

VAZ025>031-240500-
SHENANDOAH VALLEY

CITY           SKY/WX    TMP DP  RH WIND       PRES   REMARKS
WINCHESTER*    LGT RAIN  77  68  73 CALM      29.69S
FRONT ROYAL*   MOCLDY    79  70  73 SW5       29.68S
LURAY*         CLOUDY    79  70  73 SW5       29.70F
NEW MARKET*    CLOUDY    78  69  72 SW8       29.70S
STAUNTON*      LGT RAIN  75  68  78 SW18G25   29.77S
WAYNESBORO*    CLOUDY    76  70  81 S9G23     29.77F

$$

WVZ021-048>050-054>055-240500-
EASTERN WEST VIRGINIA PANHANDLE

CITY           SKY/WX    TMP DP  RH WIND       PRES   REMARKS
MARTINSBURG    CLOUDY    74  70  87 CALM      29.67F
PETERSBURG*    LGT RAIN  74  71  91 S3        29.69F

$$

VAZ036>039-050-240500-
CENTRAL FOOTHILLS

CITY           SKY/WX    TMP DP  RH WIND       PRES   REMARKS
CHARLOTTESVILL CLOUDY    82  70  66 S21       29.73S
CULPEPER*      CLOUDY    82  72  69 S10G17    29.71S
ORANGE*        MOCLDY    79  70  73 SW12G17   29.72S
GORDONSVILLE*  CLOUDY    81  71  72 SW15G22   29.72S
WARRENTON*     MOCLDY    83  67  60 S12       29.70S

$$

VAZ055>057-240500-
NORTH AND CENTRAL PIEDMONT

CITY           SKY/WX    TMP DP  RH WIND       PRES   REMARKS
FREDERICKSBRG* CLOUDY    83  71  66 SW15G21   29.71S
STAFFORD*      CLOUDY    81  71  70 S10G16    29.75F

$$

NCZ024-NYZ072-PAZ021-071-VAZ022-071-240500-
OTHER REGIONAL OBSERVATIONS

CITY           SKY/WX    TMP DP  RH WIND       PRES   REMARKS
NEW YORK CITY  PTCLDY    79  73  82 VRB7G26   29.65F
PHILADELPHIA   PTCLDY    83  72  69 SW15      29.66F
PITTSBURGH     LGT RAIN  68  68 100 SW6       29.74R
ROANOKE        CLOUDY    82  66  58 SW13G22   29.76F
RICHMOND       MOCLDY    82  72  71 S18       29.77F
RALEIGH        PTCLDY    82  74  76 S18G26    29.86F

$$

ANZ530>537-240500-
MARINE OBSERVATIONS

STATION/POSITION TIME  TEMP    WIND        PRES
                       AIR SEA DIR/SP/G
                 (UTC) (F)     (DEG/KT/KT) (MB)
THOMAS PT LIGHT  0400   83 78  200/ 20/ 22   N/A
BALT KEY BRIDGE  0342   84     200/ 12/ 16 1004.5F
COVE POINT       0342   83     210/ 16/ 21 1007.3F
LEWISETTA        0342   83 80  230/ 16/ 21 1007.2F
SOLOMONS ISLAND  0342   83 77  200/ 13/ 16   N/A
PINEY POINT      0342          220/ 19/ 21   N/A

$$




USA.gov is the U.S. government's official web portal to all federal, state and local government web resources and services.